Location: Cronhütte
(48.9135°N, 9.6869°E)
Time: 09:21:32
(UTC+00:00)

Meteor 1-28 Rocket - Pass Details

Date: 23 May 2024
Orbit: 474 x 489 km, 97.5° (Epoch: 15 June)

Event Time Altitude Azimuth Distance (km) Brightness Sun altitude
Exits shadow 01:59:47 - 173° (S) 1,717 5.4 -11.7°
Reaches altitude 10° 01:59:56 10° 173° (S) 1,657 5.4 -11.7°
Maximum altitude 02:03:29 71° 258° (WSW) 513 3.0 -11.3°
Drops below altitude 10° 02:07:03 10° 343° (NNW) 1,663 6.2 -10.9°
Sets 02:09:07 0° 345° (NNW) 2,545 7.3 -10.7°
